FW9676 Weather Reports


time (UTC)temp
C
wind
direction
speed
KPH
gust
KPH
rain 1hr
cm
rain 24hr
cm
rain mn
cm
humidity
%
barometer
mb
20260508033509 16 259 3.2 11.3 0.00 0.00 0.00 89 1015.0
20260508033034 16 240 1.6 11.3 0.00 0.00 0.00 89 1015.0
20260508032516 16 266 1.6 11.3 0.00 0.00 0.00 89 1015.0
20260508032013 16 261 3.2 11.3 0.00 0.00 0.00 88 1014.9
20260508031529 16 0 1.6 9.7 0.00 0.00 0.00 88 1014.8
20260508031012 16 270 1.6 9.7 0.00 0.00 0.00 88 1014.7
20260508030509 16 263 1.6 9.7 0.00 0.00 0.00 88 1014.7
20260508030036 16 242 3.2 12.9 0.00 0.00 0.00 88 1014.6
20260508025515 16 242 3.2 12.9 0.00 0.00 0.00 88 1014.5
20260508025013 16 235 3.2 12.9 0.00 0.00 0.00 88 1014.5
20260508024531 16 265 3.2 12.9 0.00 0.00 0.00 87 1014.4
20260508024013 16 238 3.2 12.9 0.00 0.00 0.00 87 1014.4
20260508023513 16 246 4.8 17.7 0.00 0.00 0.00 87 1014.4
20260508023033 16 286 6.4 17.7 0.00 0.00 0.00 86 1014.4
20260508022513 17 261 4.8 19.3 0.00 0.00 0.00 86 1014.3
20260508022012 17 266 4.8 19.3 0.00 0.00 0.00 86 1014.3
20260508021533 17 295 8.0 19.3 0.00 0.00 0.00 86 1014.3
20260508021016 17 257 6.4 16.1 0.00 0.00 0.00 86 1014.2
20260508020512 17 225 6.4 16.1 0.00 0.00 0.00 86 1014.3
20260508020030 17 242 6.4 16.1 0.00 0.00 0.00 85 1014.3
20260508015510 17 219 3.2 16.1 0.00 0.00 0.00 84 1014.2
20260508015010 17 270 6.4 16.1 0.00 0.00 0.00 84 1014.2
20260508014531 17 219 3.2 16.1 0.00 0.00 0.00 83 1014.2
20260508014013 17 235 4.8 16.1 0.00 0.00 0.00 83 1014.3
20260508013512 17 244 3.2 17.7 0.00 0.00 0.00 83 1014.2
20260508013030 17 217 8.0 17.7 0.00 0.00 0.00 83 1014.1
20260508012509 17 268 6.4 16.1 0.00 0.00 0.00 83 1014.2
20260508012011 17 232 6.4 16.1 0.00 0.00 0.00 84 1014.1
20260508011532 17 220 4.8 16.1 0.00 0.00 0.00 85 1014.2
20260508011012 17 259 4.8 12.9 0.00 0.00 0.00 84 1014.2
20260508010512 18 330 3.2 12.9 0.00 0.00 0.00 84 1014.2
20260508010038 17 202 6.4 20.9 0.00 0.00 0.00 84 1014.2
20260508005512 18 211 4.8 20.9 0.00 0.00 0.00 84 1014.1
20260508005014 18 269 4.8 20.9 0.00 0.00 0.00 83 1014.1
20260508004530 18 265 4.8 14.5 0.00 0.00 0.00 83 1014.1
20260508004016 18 217 6.4 17.7 0.00 0.00 0.00 83 1014.0
20260508003510 18 239 6.4 17.7 0.00 0.00 0.00 84 1014.1
20260508003030 17 216 8.0 19.3 0.00 0.00 0.00 84 1014.2
20260508002514 18 269 6.4 19.3 0.00 0.00 0.00 84 1014.2
20260508002014 18 223 6.4 19.3 0.00 0.00 0.00 83 1014.1
20260508001530 18 215 6.4 16.1 0.00 0.00 0.00 83 1014.1
20260508001010 18 280 6.4 17.7 0.00 0.00 0.00 82 1014.2
20260508000510 18 216 6.4 17.7 0.00 0.00 0.00 82 1014.2
20260508000038 18 245 6.4 16.1 0.00 0.00 0.00 82 1014.2
20260507235516 18 216 6.4 16.1 0.00 0.00 0.00 82 1014.2
20260507235013 18 269 4.8 20.9 0.00 0.00 0.00 83 1014.2
20260507234530 18 225 9.7 20.9 0.00 0.00 0.00 82 1014.3
20260507234012 18 236 6.4 19.3 0.00 0.00 0.00 83 1014.4
20260507233509 18 269 6.4 19.3 0.00 0.00 0.00 83 1014.4
20260507233038 18 257 8.0 19.3 0.00 0.00 0.00 83 1014.4
20260507232513 18 271 8.0 19.3 0.00 0.00 0.00 82 1014.4
20260507232014 18 275 6.4 19.3 0.00 0.00 0.00 82 1014.4
20260507231531 18 249 8.0 19.3 0.00 0.00 0.00 82 1014.4
20260507231011 18 269 4.8 16.1 0.00 0.00 0.00 82 1014.4
20260507230512 18 197 6.4 19.3 0.00 0.00 0.00 81 1014.4
20260507230045 19 240 9.7 25.7 0.00 0.00 0.00 80 1014.4
20260507225514 19 221 8.0 25.7 0.00 0.00 0.00 80 1014.4
20260507225013 19 261 8.0 25.7 0.00 0.00 0.00 80 1014.3
20260507224535 19 289 9.7 24.1 0.00 0.00 0.00 79 1014.4
20260507224009 19 221 9.7 24.1 0.00 0.00 0.00 80 1014.4
20260507223509 18 277 11.3 29.0 0.00 0.00 0.00 81 1014.4
20260507223104 18 257 12.9 29.0 0.00 0.00 0.00 80 1014.4
20260507222510 18 259 14.5 29.0 0.00 0.00 0.00 80 1014.5
20260507222012 18 267 12.9 27.4 0.00 0.00 0.00 80 1014.5
20260507221531 18 248 14.5 27.4 0.00 0.00 0.00 80 1014.5
20260507221012 18 240 11.3 24.1 0.00 0.00 0.00 80 1014.7
20260507220512 18 211 9.7 24.1 0.00 0.00 0.00 80 1014.6
20260507220033 18 255 11.3 27.4 0.00 0.00 0.00 79 1014.7
20260507215513 19 268 11.3 27.4 0.00 0.00 0.00 79 1014.6
20260507215012 19 230 12.9 25.7 0.00 0.00 0.00 79 1014.6
20260507214530 19 235 9.7 29.0 0.00 0.00 0.00 79 1014.6
20260507214012 18 253 9.7 30.6 0.00 0.00 0.00 79 1014.7
20260507213509 19 267 12.9 30.6 0.00 0.00 0.00 79 1014.7
20260507213030 19 252 14.5 30.6 0.00 0.00 0.00 79 1014.8
20260507212509 19 306 12.9 29.0 0.00 0.00 0.00 80 1014.7
20260507212017 19 219 12.9 29.0 0.00 0.00 0.00 79 1014.8
20260507211528 18 275 11.3 27.4 0.00 0.00 0.00 80 1014.9
20260507211010 19 248 14.5 27.4 0.00 0.00 0.00 79 1015.0
20260507210516 19 259 11.3 27.4 0.00 0.00 0.00 79 1015.1
20260507210037 19 248 9.7 24.1 0.00 0.00 0.00 80 1015.2
20260507205510 19 248 11.3 27.4 0.00 0.00 0.00 79 1015.4
20260507205012 18 238 12.9 27.4 0.00 0.00 0.00 81 1015.4
20260507204533 18 245 12.9 27.4 0.00 0.00 0.00 81 1015.3
20260507204012 18 186 14.5 24.1 0.00 0.00 0.00 79 1015.4
20260507203512 18 241 11.3 25.7 0.00 0.00 0.00 80 1015.4
20260507203036 18 202 12.9 29.0 0.00 0.00 0.00 80 1015.4
20260507202509 18 288 16.1 29.0 0.00 0.00 0.00 80 1015.4
20260507202014 18 215 9.7 24.1 0.00 0.00 0.00 80 1015.5
20260507201534 18 265 9.7 27.4 0.00 0.00 0.00 81 1015.5
20260507201020 18 230 11.3 27.4 0.00 0.00 0.00 81 1015.5
20260507200510 18 254 12.9 27.4 0.00 0.00 0.00 80 1015.6
20260507200049 18 272 12.9 25.7 0.00 0.00 0.00 79 1015.6
20260507195513 19 287 8.0 24.1 0.00 0.00 0.00 80 1015.6
20260507195011 18 275 11.3 24.1 0.00 0.00 0.00 80 1015.7
20260507194531 19 261 11.3 22.5 0.00 0.00 0.00 80 1015.8
20260507194012 19 267 9.7 24.1 0.00 0.00 0.00 79 1015.9
20260507193512 18 294 11.3 24.1 0.00 0.00 0.00 79 1015.9
20260507193043 18 206 9.7 24.1 0.00 0.00 0.00 79 1015.9
20260507192511 19 235 11.3 24.1 0.00 0.00 0.00 78 1016.0
20260507192013 19 254 8.0 19.3 0.00 0.00 0.00 79 1016.1
20260507191529 18 250 9.7 17.7 0.00 0.00 0.00 80 1016.2
20260507191012 18 265 8.0 20.9 0.00 0.00 0.00 79 1016.3
20260507190512 18 153 11.3 20.9 0.00 0.00 0.00 79 1016.3
20260507190036 19 277 9.7 19.3 0.00 0.00 0.00 79 1016.3
20260507185512 19 173 8.0 19.3 0.00 0.00 0.00 79 1016.3
20260507185010 19 253 9.7 20.9 0.00 0.00 0.00 79 1016.3
20260507184528 19 205 8.0 20.9 0.00 0.00 0.00 79 1016.3
20260507184014 19 240 9.7 20.9 0.00 0.00 0.00 79 1016.3
20260507183517 19 275 6.4 17.7 0.00 0.00 0.00 79 1016.3
20260507183037 19 240 6.4 19.3 0.00 0.00 0.00 78 1016.4
20260507182514 19 221 6.4 19.3 0.00 0.00 0.00 79 1016.4
20260507182013 19 259 8.0 19.3 0.00 0.00 0.00 79 1016.4
20260507181535 19 271 9.7 17.7 0.00 0.00 0.00 79 1016.5
20260507181016 19 259 6.4 14.5 0.00 0.00 0.00 79 1016.5
20260507180516 19 260 4.8 19.3 0.00 0.00 0.00 79 1016.6
20260507180030 19 262 6.4 19.3 0.00 0.00 0.00 79 1016.5
20260507175510 19 281 4.8 17.7 0.00 0.00 0.00 80 1016.6
20260507175013 18 208 8.0 17.7 0.00 0.00 0.00 80 1016.5
20260507174537 18 267 9.7 17.7 0.00 0.00 0.00 80 1016.5
20260507174010 18 250 6.4 17.7 0.00 0.00 0.00 80 1016.6
20260507173514 18 245 6.4 17.7 0.00 0.00 0.00 81 1016.6
20260507173028 18 290 6.4 17.7 0.00 0.00 0.00 81 1016.6
20260507172513 18 260 9.7 17.7 0.00 0.00 0.00 81 1016.7
20260507172012 18 221 8.0 17.7 0.00 0.00 0.00 81 1016.6
20260507171530 18 262 6.4 16.1 0.00 0.00 0.00 81 1016.6
20260507171015 18 218 6.4 16.1 0.00 0.00 0.00 81 1016.6
20260507170510 18 257 6.4 14.5 0.00 0.00 0.00 81 1016.6
20260507170030 18 201 4.8 12.9 0.00 0.00 0.00 82 1016.6
20260507165512 18 261 6.4 12.9 0.00 0.00 0.00 81 1016.7
20260507165010 18 207 4.8 12.9 0.00 0.00 0.00 82 1016.6
20260507164529 18 271 4.8 14.5 0.00 0.00 0.00 82 1016.6
20260507164014 18 270 3.2 14.5 0.00 0.00 0.00 82 1016.6
20260507163512 18 242 4.8 12.9 0.00 0.00 0.00 82 1016.7
20260507163031 18 250 3.2 12.9 0.00 0.00 0.00 83 1016.7
20260507162512 18 254 3.2 11.3 0.00 0.00 0.00 83 1016.7
20260507162009 18 278 3.2 11.3 0.00 0.00 0.00 82 1016.8
20260507161531 18 271 3.2 6.4 0.00 0.00 0.00 83 1016.7
20260507161011 17 217 1.6 6.4 0.00 0.00 0.00 83 1016.7
20260507160510 17 265 1.6 12.9 0.00 0.00 0.00 84 1016.8
20260507160030 17 235 4.8 12.9 0.00 0.00 0.00 84 1016.7
20260507155509 17 219 3.2 9.7 0.00 0.00 0.00 84 1016.8
20260507155016 17 245 1.6 9.7 0.00 0.00 0.00 85 1016.7
20260507154532 17 226 3.2 11.3 0.00 0.00 0.00 85 1016.7
20260507154014 17 242 1.6 11.3 0.00 0.00 0.00 86 1016.8
20260507153512 17 284 4.8 11.3 0.00 0.00 0.00 86 1016.7
20260507153035 16 252 3.2 11.3 0.00 0.00 0.00 87 1016.7
20260507152512 16 228 1.6 12.9 0.00 0.00 0.00 87 1016.7
20260507152014 16 257 3.2 14.5 0.00 0.00 0.00 88 1016.7
20260507151532 16 266 3.2 14.5 0.00 0.00 0.00 88 1016.9
20260507151013 16 278 3.2 9.7 0.00 0.00 0.00 89 1016.8
20260507150515 16 282 3.2 9.7 0.00 0.00 0.00 89 1016.8
20260507150032 16 265 3.2 11.3 0.00 0.00 0.00 89 1016.8
20260507145514 16 219 1.6 11.3 0.00 0.00 0.00 90 1016.8
20260507145014 16 275 1.6 8.0 0.00 0.00 0.00 90 1016.7
20260507144531 15 265 3.2 9.7 0.00 0.00 0.00 91 1016.7
20260507144011 15 221 3.2 11.3 0.00 0.00 0.00 91 1016.7
20260507143512 15 264 4.8 11.3 0.00 0.00 0.00 92 1016.6
20260507143032 15 250 0.0 8.0 0.00 0.00 0.00 93 1016.6
20260507142513 15 0 1.6 6.4 0.00 0.00 0.00 93 1016.6
20260507142010 15 267 1.6 6.4 0.00 0.00 0.00 93 1016.5
20260507141532 15 234 1.6 6.4 0.00 0.00 0.00 94 1016.4
20260507141013 14 225 1.6 4.8 0.00 0.00 0.00 94 1016.4
20260507140515 14 267 1.6 4.8 0.00 0.00 0.00 95 1016.4
20260507140033 13 250 1.6 4.8 0.00 0.00 0.00 95 1016.3
20260507135519 13 283 1.6 4.8 0.00 0.00 0.00 95 1016.3
20260507135014 13 221 0.0 3.2 0.00 0.00 0.00 96 1016.3
20260507134529 12 230 0.0 3.2 0.00 0.00 0.00 95 1016.2
20260507134014 12 230 0.0 3.2 0.00 0.00 0.00 95 1016.2
20260507133516 12 0 0.0 0.0 0.00 0.00 0.00 95 1016.2
20260507133033 11 0 0.0 0.0 0.00 0.00 0.00 94 1016.1
20260507132512 11 0 0.0 0.0 0.00 0.00 0.00 94 1016.1
20260507132015 11 0 0.0 0.0 0.00 0.00 0.00 93 1016.1
20260507131530 11 0 0.0 0.0 0.00 0.00 0.00 93 1016.1
20260507131014 11 0 0.0 0.0 0.00 0.00 0.00 93 1016.1
20260507130513 11 0 0.0 0.0 0.00 0.00 0.00 93 1016.1
20260507130053 11 0 0.0 0.0 0.00 0.00 0.00 93 1015.9
20260507125510 11 0 0.0 0.0 0.00 0.00 0.00 93 1016.0
20260507125012 11 0 0.0 0.0 0.00 0.00 0.00 93 1016.0
20260507124529 12 0 0.0 0.0 0.00 0.00 0.00 93 1015.9
20260507124011 12 0 0.0 0.0 0.00 0.00 0.00 93 1016.0
20260507123513 12 0 0.0 0.0 0.00 0.00 0.00 93 1016.0
20260507123030 12 0 0.0 0.0 0.00 0.00 0.00 93 1015.9
20260507122512 12 0 0.0 1.6 0.00 0.00 0.00 93 1015.9
20260507122016 12 0 0.0 1.6 0.00 0.00 0.00 93 1016.0
20260507121531 12 0 0.0 0.0 0.00 0.00 0.00 93 1016.0
20260507121010 12 0 0.0 0.0 0.00 0.00 0.00 93 1016.1
20260507120509 12 0 0.0 0.0 0.00 0.00 0.00 93 1016.0
20260507120036 12 0 0.0 3.2 0.00 0.00 0.00 93 1016.0
20260507115513 12 0 0.0 3.2 0.00 0.00 0.00 93 1016.1
20260507115014 12 230 0.0 1.6 0.00 0.00 0.00 93 1016.0
20260507114533 12 0 0.0 0.0 0.00 0.00 0.00 93 1016.0
20260507114014 12 0 0.0 0.0 0.00 0.00 0.00 93 1016.1
20260507113514 12 0 0.0 0.0 0.00 0.00 0.00 93 1016.0
20260507113029 12 0 0.0 0.0 0.00 0.00 0.00 93 1016.0
20260507112510 12 0 0.0 0.0 0.00 0.00 0.00 93 1016.1
20260507112013 12 0 0.0 1.6 0.00 0.00 0.00 93 1016.1
20260507111529 12 0 0.0 1.6 0.00 0.00 0.00 93 1016.1
20260507111013 12 0 0.0 1.6 0.00 0.00 0.00 93 1016.1
20260507110513 12 0 0.0 0.0 0.00 0.00 0.00 93 1016.1
20260507110030 12 0 0.0 0.0 0.00 0.00 0.00 93 1016.2
20260507105510 12 0 0.0 0.0 0.00 0.00 0.00 93 1016.2
20260507105010 12 0 0.0 0.0 0.00 0.00 0.00 92 1016.3
20260507104530 12 0 0.0 0.0 0.00 0.00 0.00 92 1016.4
20260507104015 12 0 0.0 0.0 0.00 0.00 0.00 92 1016.3
20260507103513 12 0 0.0 0.0 0.00 0.00 0.00 92 1016.4
20260507103030 13 0 0.0 0.0 0.00 0.00 0.00 92 1016.4
20260507102509 13 0 0.0 0.0 0.00 0.00 0.00 92 1016.4
20260507102013 13 0 0.0 1.6 0.00 0.00 0.00 92 1016.4
20260507101539 13 0 0.0 1.6 0.00 0.00 0.00 92 1016.4
20260507101018 13 0 0.0 1.6 0.00 0.00 0.00 92 1016.4
20260507100514 13 0 0.0 0.0 0.00 0.00 0.00 92 1016.5
20260507100044 13 0 0.0 0.0 0.00 0.00 0.00 92 1016.4
20260507095513 13 0 0.0 0.0 0.00 0.00 0.00 92 1016.4
20260507095011 13 0 0.0 0.0 0.00 0.00 0.00 92 1016.4
20260507094532 13 0 0.0 0.0 0.00 0.00 0.00 91 1016.4
20260507094013 13 0 0.0 1.6 0.00 0.00 0.00 91 1016.5
20260507093512 13 0 0.0 1.6 0.00 0.00 0.00 91 1016.6
20260507093032 13 0 0.0 1.6 0.00 0.00 0.00 91 1016.7
20260507092515 13 0 0.0 0.0 0.00 0.00 0.00 92 1016.7
20260507092012 13 0 0.0 0.0 0.00 0.00 0.00 91 1016.7
20260507091532 13 0 0.0 0.0 0.00 0.00 0.00 91 1016.8
20260507091015 13 0 0.0 0.0 0.00 0.00 0.00 91 1016.9
20260507090513 14 0 0.0 0.0 0.00 0.00 0.00 91 1016.9
20260507090033 14 0 0.0 0.0 0.00 0.00 0.00 91 1016.9
20260507085513 14 0 0.0 0.0 0.00 0.00 0.00 91 1017.0
20260507085010 14 0 0.0 0.0 0.00 0.00 0.00 91 1017.0
20260507084530 14 0 0.0 0.0 0.00 0.00 0.00 90 1017.1
20260507084012 14 0 0.0 0.0 0.00 0.00 0.00 91 1017.0
20260507083512 14 0 0.0 0.0 0.00 0.00 0.00 90 1017.1
20260507083035 15 0 0.0 1.6 0.00 0.00 0.00 90 1017.2
20260507082511 15 0 0.0 1.6 0.00 0.00 0.00 90 1017.1
20260507082010 15 0 0.0 1.6 0.00 0.00 0.00 90 1017.2
20260507081530 15 0 0.0 6.4 0.00 0.00 0.00 90 1017.2
20260507081013 15 0 0.0 6.4 0.00 0.00 0.00 90 1017.2
20260507080513 15 0 0.0 4.8 0.00 0.00 0.00 90 1017.2
20260507080031 15 258 0.0 9.7 0.00 0.00 0.00 90 1017.3
20260507075514 15 246 1.6 9.7 0.00 0.00 0.00 89 1017.3
20260507075012 15 268 3.2 11.3 0.00 0.00 0.00 89 1017.3
20260507074530 15 263 1.6 12.9 0.00 0.00 0.00 89 1017.3
20260507074012 15 248 4.8 12.9 0.00 0.00 0.00 89 1017.4
20260507073512 15 261 4.8 12.9 0.00 0.00 0.00 89 1017.4
20260507073032 15 213 3.2 11.3 0.00 0.00 0.00 89 1017.4
20260507072515 15 257 3.2 12.9 0.00 0.00 0.00 89 1017.5
20260507072013 15 246 3.2 12.9 0.00 0.00 0.00 89 1017.4
20260507071532 15 246 4.8 14.5 0.00 0.00 0.00 89 1017.4
20260507071013 15 265 4.8 14.5 0.00 0.00 0.00 90 1017.3
20260507070513 15 209 3.2 11.3 0.00 0.00 0.00 91 1017.4
20260507070037 15 226 3.2 11.3 0.00 0.00 0.00 91 1017.5
20260507065512 15 0 1.6 4.8 0.00 0.00 0.00 91 1017.5
20260507065013 15 267 0.0 6.4 0.00 0.00 0.00 91 1017.4
20260507064538 15 265 1.6 6.4 0.00 0.00 0.00 91 1017.4
20260507064013 15 0 1.6 6.4 0.00 0.00 0.00 91 1017.5
20260507063512 15 0 1.6 6.4 0.00 0.00 0.00 91 1017.6
20260507063032 15 267 0.0 9.7 0.00 0.00 0.00 91 1017.6
20260507062512 15 266 1.6 12.9 0.00 0.00 0.00 91 1017.6
20260507062013 15 221 3.2 12.9 0.00 0.00 0.00 91 1017.6
20260507061530 15 269 4.8 12.9 0.00 0.00 0.00 91 1017.6
20260507061013 15 267 3.2 12.9 0.00 0.00 0.00 91 1017.5
20260507060520 15 278 1.6 12.9 0.00 0.00 0.00 91 1017.5
20260507060030 15 278 4.8 12.9 0.00 0.00 0.00 91 1017.6
20260507055513 15 279 3.2 12.9 0.00 0.00 0.00 91 1017.6
20260507055014 15 258 3.2 11.3 0.00 0.00 0.00 91 1017.5
20260507054538 15 268 3.2 19.3 0.00 0.00 0.00 91 1017.5
20260507054012 15 266 1.6 19.3 0.00 0.00 0.00 90 1017.5
20260507053513 15 265 1.6 11.3 0.00 0.00 0.00 90 1017.6
20260507053030 15 269 3.2 11.3 0.00 0.00 0.00 90 1017.6
20260507052512 15 270 3.2 12.9 0.00 0.00 0.00 90 1017.6
20260507052012 15 262 3.2 14.5 0.00 0.00 0.00 90 1017.6
20260507051532 15 271 6.4 14.5 0.00 0.00 0.00 89 1017.6
20260507051012 15 272 4.8 12.9 0.00 0.00 0.00 89 1017.6
20260507050514 15 263 4.8 12.9 0.00 0.00 0.00 89 1017.6
20260507050036 15 252 4.8 11.3 0.00 0.00 0.00 88 1017.5
20260507045514 15 250 1.6 12.9 0.00 0.00 0.00 88 1017.5
20260507045013 15 251 3.2 14.5 0.00 0.00 0.00 88 1017.5
20260507044536 15 262 4.8 14.5 0.00 0.00 0.00 88 1017.5
20260507044013 15 267 1.6 6.4 0.00 0.00 0.00 89 1017.4
20260507043511 15 232 1.6 6.4 0.00 0.00 0.00 89 1017.5
20260507043030 15 0 1.6 8.0 0.00 0.00 0.00 89 1017.3
20260507042514 15 271 0.0 8.0 0.00 0.00 0.00 89 1017.4
20260507042012 15 263 1.6 8.0 0.00 0.00 0.00 88 1017.3
20260507041540 16 211 1.6 14.5 0.00 0.00 0.00 89 1017.4
20260507041013 16 0 1.6 14.5 0.00 0.00 0.00 89 1017.3
20260507040513 16 264 4.8 14.5 0.00 0.00 0.00 89 1017.1
20260507040029 16 0 3.2 12.9 0.00 0.00 0.00 88 1017.2
20260507035513 16 265 1.6 12.9 0.00 0.00 0.00 88 1017.1
20260507035012 16 253 3.2 12.9 0.00 0.00 0.00 88 1017.0
20260507034528 16 209 4.8 16.1 0.00 0.00 0.00 87 1017.0
20260507034012 16 266 3.2 16.1 0.00 0.00 0.00 87 1016.9